User: anonymous   Login
Location: *
(48.8667°N, 2.3331°E)
Time: 12:38:02
(UTC+00:00)
Language:

Cosmos 2061 Rocket - Orbit

View from above orbital plane
View from above orbital plane
View from above satellite
View from above satellite

Ground track
Ground track

The orbit data is extracted from the following two-line orbital elements,

1 20528U 90023B   21016.88851465 -.00000061  00000-0 -82286-4 0  9995
2 20528  82.9361 175.7493 0031523 347.7448 166.2644 13.72875617544464
Epoch (UTC): 16 January 2021 21:19:27
Eccentricity: 0.0031523
inclination: 82.9361°
perigee height: 966 km
apogee height: 1012 km
right ascension of ascending node: 175.7493°
argument of perigee: 347.7448°
revolutions per day: 13.72875617
mean anomaly at epoch: 166.2644°
orbit number at epoch: 54446

The dashed part of the orbit path shows where the satellite is in the earth's shadow,  

DLR